Regional Weather Roundup
Issued by NWS

Home | Current Version | Previous Version | Graphics & Text | Print | Product List | Glossary On
Versions: 1 2 3 4 5 6 7 8 9 10 11 12 13 14 15 16 17 18 19 20 21 22 23 24 25 26 27 28 29 30 31 32 33 34 35 36 37 38 39 40 41 42 43 44 45 46 47 48 49 50
000
ASUS45 KABQ 292310
RWRNM
WEATHER ROUNDUP FOR NEW MEXICO
NATIONAL WEATHER SERVICE ALBUQUERQUE NM
500 PM MDT SUN MAR 29 2015

NOTE: "FAIR" MEANS FEW OR NO CLOUDS BELOW 12,000 FEET AGL WITH NO
       SIGNIFICANT WEATHER OR OBSTRUCTIONS TO VISION.

      THIS PRODUCT IS RELEASED AS TWO VERSIONS.  ONE VERSION NEAR
      THE TOP OF THE HOUR CONTAINING PRELIMINARY DATA FROM ALBUQUERQUE
      AND OTHER STATIONS.  A FINAL VERSION WITH ADDITIONAL DATA IS
      ISSUED ABOUT 10 MINUTES AFTER THE HOUR.

NMZ501-503-504-510>518-300000-
NORTHWEST PLATEAU/NORTHCENTRAL MOUNTAINS

CITY           SKY/WX    TMP DP  RH WIND       PRES   REMARKS
FARMINGTON     SUNNY     76  10   8 W12G18    30.13F
LOS ALAMOS     CLOUDY    64  19  17 NE6       30.24S
SANTA FE       MOSUNNY   74   7   7 SW13      30.17F
TAOS           MOSUNNY   70  16  12 W8G20     30.21S
ANGEL FIRE     MOCLDY    54  27  35 E12       30.33S

$$
NMZ402-403-502-505>509-300000-
WESTCENTRAL MOUNTAINS/SOUTHWEST MOUNTAINS

CITY           SKY/WX    TMP DP  RH WIND       PRES   REMARKS
GALLUP         MOSUNNY   73   5   7 SW12G17   30.20F
GRANTS         PTSUNNY   71  12  10 CALM      30.20F
SILVER CITY    CLOUDY    75  14   9 W15G21    30.22S

$$
NMZ407-409-411-412-300000-
SOUTHERN DESERTS

CITY           SKY/WX    TMP DP  RH WIND       PRES   REMARKS
LORDSBURG      FAIR      81  18   9 W8        30.12F
DEMING         CLOUDY    81  15   8 W13       30.12F
LAS CRUCES     CLOUDY    83  13   7 W12G17    30.12F
HOLLOMAN AFB   CLOUDY    84   7   5 SW2       30.08F
ALAMOGORDO     CLOUDY    82   9   6 NW6       30.10F
T OR C         CLOUDY    81   9   6 MISG      30.11S

$$
NMZ519>523-300000-
CENTRAL VALLEYS/CENTRAL HIGHLANDS

CITY           SKY/WX    TMP DP  RH WIND       PRES   REMARKS
ALBUQUERQUE    PTSUNNY   77  17  10 VRB5      30.13F
DOUBLE EAGLE   MOSUNNY   75   5   6 S7        30.16F
MORIARTY ARPT  FAIR      75   8   7 W7        30.20F
CLINES CORNERS PTSUNNY   65  22  19 SE20G25   30.25S
BELEN          FAIR      79  13   8 SE8       30.12F
SOCORRO        FAIR      82  13   7 S8        30.09F

$$
NMZ524>526-539-540-300000-
SOUTHCENTRAL MOUNTAINS

CITY           SKY/WX    TMP DP  RH WIND       PRES   REMARKS
RUIDOSO        PTSUNNY   68  18  14 SE14G21   30.28S

$$
NMZ527>531-300000-
NORTHEAST HIGHLANDS/NORTHEAST PLAINS

CITY           SKY/WX    TMP DP  RH WIND       PRES   REMARKS
LAS VEGAS      PTSUNNY   62  25  24 SE17      30.25S
RATON          CLOUDY    65  24  21 S20       30.22S
CLAYTON        CLOUDY    66  22  18 NE14      30.22F

$$
NMZ532>537-300000-
EASTCENTRAL PLAINS

CITY           SKY/WX    TMP DP  RH WIND       PRES   REMARKS
TUCUMCARI      SUNNY     73  22  14 NE13      30.18S
CANNON AFB     NOT AVBL
CLOVIS AIRPORT SUNNY     73  27  17 NE18G29   30.19R

$$
NMZ028-029-538-300000-
SOUTHEAST PLAINS

CITY           SKY/WX    TMP DP  RH WIND       PRES   REMARKS
ROSWELL        MOSUNNY   85  24  11 E12       30.07F
ARTESIA        MOSUNNY   86  27  11 E7        30.07S
CARLSBAD       SUNNY     89  20   8 NE5       30.03F
HOBBS          SUNNY     84  27  12 NE15G25   30.10S


$$


USA.gov is the U.S. government's official web portal to all federal, state and local government web resources and services.